Time,TemperatureF,DewpointF,PressureIn,WindDirection,WindDirectionDegrees,WindSpeedMPH,WindSpeedGustMPH,Humidity,HourlyPrecipIn,Conditions,Clouds,dailyrainin,SoftwareType,DateUTC
2016-07-30 00:05:00,79.0,43.0,-100.00,NE,36,2.0,5.0,28,-99.99,,,-99.99,,2016-07-30 07:05:00,
2016-07-30 00:13:00,79.0,43.0,-100.00,NE,36,2.0,5.0,28,-99.99,,,-99.99,,2016-07-30 07:13:00,
2016-07-30 00:27:00,79.0,43.0,-100.00,NE,36,2.0,5.0,28,-99.99,,,-99.99,,2016-07-30 07:27:00,
2016-07-30 00:33:00,78.0,41.0,-100.00,North,-9999,0.0,5.0,27,-99.99,,,-99.99,,2016-07-30 07:33:00,
2016-07-30 00:54:00,78.0,41.0,-100.00,North,-9999,0.0,5.0,27,-99.99,,,-99.99,,2016-07-30 07:54:00,
2016-07-30 01:04:00,78.0,41.0,-100.00,North,-9999,0.0,5.0,27,-99.99,,,-99.99,,2016-07-30 08:04:00,
2016-07-30 01:13:00,78.0,41.0,-100.00,North,-9999,0.0,5.0,27,-99.99,,,-99.99,,2016-07-30 08:13:00,
2016-07-30 01:23:00,78.0,41.0,-100.00,North,-9999,0.0,5.0,27,-99.99,,,-99.99,,2016-07-30 08:23:00,
2016-07-30 01:33:00,78.0,41.0,-100.00,North,-9999,0.0,-999.0,27,-99.99,,,-99.99,,2016-07-30 08:33:00,
2016-07-30 01:54:00,78.0,41.0,-100.00,North,-9999,0.0,2.0,27,-99.99,,,-99.99,,2016-07-30 08:54:00,
2016-07-30 02:03:00,78.0,41.0,-100.00,North,-9999,0.0,2.0,27,-99.99,,,-99.99,,2016-07-30 09:03:00,
2016-07-30 02:13:00,78.0,41.0,-100.00,North,-9999,0.0,2.0,27,-99.99,,,-99.99,,2016-07-30 09:13:00,
2016-07-30 02:23:00,78.0,41.0,-100.00,North,-9999,0.0,2.0,27,-99.99,,,-99.99,,2016-07-30 09:23:00,
2016-07-30 02:33:00,78.0,40.0,-100.00,North,-9999,0.0,-999.0,26,-99.99,,,-99.99,,2016-07-30 09:33:00,
2016-07-30 03:10:00,78.0,40.0,-100.00,North,-9999,0.0,-999.0,26,-99.99,,,-99.99,,2016-07-30 10:10:00,
2016-07-30 03:20:00,78.0,40.0,-100.00,North,-9999,0.0,-999.0,26,-99.99,,,-99.99,,2016-07-30 10:20:00,
2016-07-30 03:32:00,78.0,40.0,-100.00,North,-9999,0.0,-999.0,26,-99.99,,,-99.99,,2016-07-30 10:32:00,
2016-07-30 04:02:00,78.0,39.0,-100.00,North,-9999,0.0,-999.0,25,-99.99,,,-99.99,,2016-07-30 11:02:00,
2016-07-30 04:11:00,78.0,39.0,-100.00,North,-9999,0.0,-999.0,25,-99.99,,,-99.99,,2016-07-30 11:11:00,
2016-07-30 04:21:00,78.0,39.0,-100.00,North,-9999,0.0,-999.0,25,-99.99,,,-99.99,,2016-07-30 11:21:00,
2016-07-30 04:31:00,78.0,39.0,-100.00,North,-9999,0.0,-999.0,25,-99.99,,,-99.99,,2016-07-30 11:31:00,
2016-07-30 04:57:00,78.0,40.0,-100.00,North,-9999,0.0,3.0,26,-99.99,,,-99.99,,2016-07-30 11:57:00,
2016-07-30 05:05:00,78.0,40.0,-100.00,North,-9999,0.0,-999.0,26,-99.99,,,-99.99,,2016-07-30 12:05:00,
2016-07-30 05:13:00,78.0,40.0,-100.00,North,-9999,0.0,3.0,26,-99.99,,,-99.99,,2016-07-30 12:13:00,
2016-07-30 05:23:00,78.0,40.0,-100.00,North,-9999,0.0,3.0,26,-99.99,,,-99.99,,2016-07-30 12:23:00,
2016-07-30 05:59:00,77.0,40.0,-100.00,North,-9999,0.0,1.0,27,-99.99,,,-99.99,,2016-07-30 12:59:00,
2016-07-30 06:08:00,77.0,40.0,-100.00,North,-9999,0.0,1.0,27,-99.99,,,-99.99,,2016-07-30 13:08:00,
2016-07-30 06:13:00,77.0,40.0,-100.00,North,-9999,0.0,1.0,27,-99.99,,,-99.99,,2016-07-30 13:13:00,
2016-07-30 06:24:00,77.0,40.0,-100.00,North,-9999,0.0,1.0,27,-99.99,,,-99.99,,2016-07-30 13:24:00,
2016-07-30 06:55:00,76.0,40.0,-100.00,North,-9999,0.0,2.0,27,-99.99,,,-99.99,,2016-07-30 13:55:00,
2016-07-30 07:03:00,76.0,40.0,-100.00,North,-9999,0.0,2.0,27,-99.99,,,-99.99,,2016-07-30 14:03:00,
2016-07-30 07:14:00,76.0,40.0,-100.00,North,-9999,0.0,2.0,27,-99.99,,,-99.99,,2016-07-30 14:14:00,
2016-07-30 07:23:00,76.0,40.0,-100.00,North,-9999,0.0,2.0,27,-99.99,,,-99.99,,2016-07-30 14:23:00,
2016-07-30 08:03:00,79.0,42.0,-100.00,North,-9999,0.0,3.0,27,-99.99,,,-99.99,,2016-07-30 15:03:00,
2016-07-30 08:13:00,79.0,42.0,-100.00,North,-9999,0.0,3.0,27,-99.99,,,-99.99,,2016-07-30 15:13:00,
2016-07-30 08:23:00,79.0,42.0,-100.00,North,-9999,0.0,3.0,27,-99.99,,,-99.99,,2016-07-30 15:23:00,
2016-07-30 09:01:00,81.0,44.0,-100.00,SE,136,2.0,-999.0,27,-99.99,,,-99.99,,2016-07-30 16:01:00,
2016-07-30 09:20:00,81.0,44.0,-100.00,SE,136,2.0,-999.0,27,-99.99,,,-99.99,,2016-07-30 16:20:00,
2016-07-30 09:32:00,81.0,44.0,-100.00,SE,136,-999.9,-999.0,27,-99.99,,,-99.99,,2016-07-30 16:32:00,
2016-07-30 09:33:00,86.0,45.0,-100.00,SE,137,3.0,-999.0,24,-99.99,,,-99.99,,2016-07-30 16:33:00,
2016-07-30 10:21:00,86.0,45.0,-100.00,SE,137,3.0,-999.0,24,-99.99,,,-99.99,,2016-07-30 17:21:00,
2016-07-30 10:33:00,89.0,46.0,-100.00,ESE,119,4.0,8.0,23,-99.99,,,-99.99,,2016-07-30 17:33:00,
2016-07-30 11:05:00,89.0,46.0,-100.00,ESE,119,4.0,-999.0,23,-99.99,,,-99.99,,2016-07-30 18:05:00,
2016-07-30 11:11:00,89.0,46.0,-100.00,ESE,119,4.0,-999.0,23,-99.99,,,-99.99,,2016-07-30 18:11:00,
2016-07-30 11:21:00,89.0,46.0,-100.00,ESE,119,4.0,-999.0,23,-99.99,,,-99.99,,2016-07-30 18:21:00,
2016-07-30 11:27:00,89.0,46.0,-100.00,ESE,119,4.0,8.0,23,-99.99,,,-99.99,,2016-07-30 18:27:00,
2016-07-30 11:56:00,90.0,46.0,-100.00,SE,130,5.0,12.0,22,-99.99,,,-99.99,,2016-07-30 18:56:00,
2016-07-30 12:14:00,90.0,46.0,-100.00,SE,130,5.0,12.0,22,-99.99,,,-99.99,,2016-07-30 19:14:00,
2016-07-30 12:24:00,90.0,46.0,-100.00,SE,130,5.0,12.0,22,-99.99,,,-99.99,,2016-07-30 19:24:00,
2016-07-30 12:33:00,92.0,46.0,-100.00,SSE,148,4.0,10.0,21,-99.99,,,-99.99,,2016-07-30 19:33:00,
2016-07-30 12:55:00,92.0,46.0,-100.00,SSE,148,4.0,10.0,21,-99.99,,,-99.99,,2016-07-30 19:55:00,
2016-07-30 13:03:00,92.0,46.0,-100.00,SSE,148,4.0,10.0,21,-99.99,,,-99.99,,2016-07-30 20:03:00,
2016-07-30 13:13:00,92.0,46.0,-100.00,SSE,148,4.0,10.0,21,-99.99,,,-99.99,,2016-07-30 20:13:00,
2016-07-30 13:23:00,92.0,46.0,-100.00,SSE,148,4.0,10.0,21,-99.99,,,-99.99,,2016-07-30 20:23:00,
2016-07-30 13:54:00,92.0,45.0,-100.00,SE,140,4.0,11.0,20,-99.99,,,-99.99,,2016-07-30 20:54:00,
2016-07-30 14:04:00,92.0,45.0,-100.00,SE,140,4.0,11.0,20,-99.99,,,-99.99,,2016-07-30 21:04:00,
2016-07-30 14:13:00,92.0,45.0,-100.00,SE,140,4.0,11.0,20,-99.99,,,-99.99,,2016-07-30 21:13:00,
2016-07-30 14:33:00,92.0,44.0,-100.00,SE,129,-999.9,-999.0,19,-99.99,,,-99.99,,2016-07-30 21:33:00,
2016-07-30 15:20:00,92.0,44.0,-100.00,SE,129,5.0,-999.0,19,-99.99,,,-99.99,,2016-07-30 22:20:00,
2016-07-30 15:30:00,92.0,44.0,-100.00,SE,129,5.0,-999.0,19,-99.99,,,-99.99,,2016-07-30 22:30:00,
2016-07-30 15:33:00,92.0,39.0,-100.00,SE,136,4.0,-999.0,16,-99.99,,,-99.99,,2016-07-30 22:33:00,
2016-07-30 16:11:00,92.0,39.0,-100.00,SE,136,-999.9,-999.0,16,-99.99,,,-99.99,,2016-07-30 23:11:00,
2016-07-30 16:22:00,92.0,39.0,-100.00,SE,136,4.0,-999.0,16,-99.99,,,-99.99,,2016-07-30 23:22:00,
2016-07-30 16:33:00,90.0,41.0,-100.00,SSE,150,4.0,-999.0,18,-99.99,,,-99.99,,2016-07-30 23:33:00,
2016-07-30 16:59:00,90.0,41.0,-100.00,SSE,150,4.0,15.0,18,-99.99,,,-99.99,,2016-07-30 23:59:00,
2016-07-30 17:07:00,90.0,41.0,-100.00,SSE,150,4.0,-999.0,18,-99.99,,,-99.99,,2016-07-31 00:07:00,
2016-07-30 17:24:00,90.0,41.0,-100.00,SSE,150,4.0,15.0,18,-99.99,,,-99.99,,2016-07-31 00:24:00,